Location: Newark
(41.8083°N, 72.2500°W)
Time: 22:13:23
(UTC+00:00)

Vanguard 2 - Visible Passes

Search period start: 06 December 2021 00:00
Search period end: 16 December 2021 00:00
Orbit: 554 x 2936 km, 32.9° (Epoch: 06 December)

Date Brightness Start Highest point End Pass type
(mag) Time Alt. Az. Time Alt. Az. Time Alt. Az.
06 Dec 11.7 00:50:02 10° SW 00:51:19 10° SSW 00:52:37 10° SSW visible
06 Dec 11.0 22:53:42 10° WSW 22:59:19 20° SSW 23:06:49 10° SSE visible
07 Dec 11.3 23:12:50 10° SW 23:17:01 14° SSW 23:22:05 10° S visible
09 Dec 11.0 21:39:10 10° WSW 21:43:14 17° SSW 21:48:28 10° SSE visible
10 Dec 11.3 21:58:36 10° SW 22:00:55 12° SSW 22:03:33 10° S visible
